Regional Weather Roundup
Issued by NWS Columbia, SC

Home | Current Version | Previous Version | Text Only | Print | Product List | Glossary On
Versions: 1 2 3 4 5 6 7 8 9 10 11 12 13 14 15 16 17 18 19 20 21 22 23 24 25 26 27 28 29 30 31 32 33 34 35 36 37 38 39 40 41 42 43 44 45 46 47 48 49 50
000
ASUS42 KCAE 270410
RWRCAE
REGIONAL WEATHER ROUNDUP
NATIONAL WEATHER SERVICE COLUMBIA SC
1100 PM EST MON JAN 26 2015

NOTE: "FAIR" INDICATES FEW OR NO CLOUDS BELOW 12,000 FEET WITH NO
SIGNIFICANT WEATHER AND/OR OBSTRUCTIONS TO VISIBILITY.

NOT ALL STATIONS ARE QUALITY CONTROLLED BY THE NATIONAL
WEATHER SERVICE. USE DATA WITH CAUTION...ESPECIALLY
DEWPOINT OBSERVATIONS.

SCZ001>056-GAZ040-063>065-077-270500-
...UPSTATE SOUTH CAROLINA...

CITY           SKY/WX    TMP DP  RH WIND       PRES   REMARKS
ANDERSON       CLOUDY    36  25  64 W10       29.84S WCI  28
LIBERTY        MOCLDY    33  22  64 MISG      29.82S
SPARTANBURG    CLOUDY    37  23  56 NW23G33   29.79F WCI  26
CLEMSON        MOCLDY    36  23  59 W13       29.84S WCI  27
GREENVILLE     PTCLDY    35  22  58 N13       29.82S WCI  26
GREENWOOD      CLOUDY    39  26  59 W9        29.85R WCI  33
GREER          MOCLDY    36  23  59 N13       29.80R WCI  27
ROCK HILL      CLOUDY    38  24  57 NW9       29.78R WCI  31
CHESTER        CLOUDY    41  23  48 NW5       29.80R
LAURENS        CLOUDY    37  30  75 NW6       29.82R WCI  33


...CENTRAL SOUTH CAROLINA...

CITY           SKY/WX    TMP DP  RH WIND       PRES   REMARKS
COLUMBIA APT   PTCLDY    44  24  45 NW12      29.81R
COLUMBIA OWENS PTCLDY    44  26  49 NW9G18    29.81R
DARLINGTON     CLOUDY    45  30  57 NW13      29.74R
FLORENCE       CLOUDY    49  34  56 NW12G21   29.73R
MCENTIRE ANGB  CLEAR     43  26  52 NW20      29.79R
ORANGEBURG     FAIR      41  30  65 W9        29.81R
SUMTER SHAW    PTCLDY    44  29  55 NW13      29.76R
NEWBERRY       CLOUDY    39  23  52 NW7       29.85R WCI  34
AIKEN          FAIR      37  30  75 W9        29.86R WCI  31
BARNWELL       FAIR      39  32  75 SW7       29.85R WCI  34
CAMDEN         FAIR      41  28  60 W9        29.78R
LANCASTER      CLOUDY    39  25  56 W7        29.78R WCI  34
WINNSBORO      MOCLDY    37  28  70 NW7       29.79S WCI  32


...EASTERN AND COASTAL SOUTH CAROLINA...

CITY           SKY/WX    TMP DP  RH WIND       PRES   REMARKS
MYRTLE BEACH   CLOUDY    48  39  71 NW8       29.73R
N MYRTLE BCH   CLOUDY    47  41  80 NW5       29.68S
CONWAY         RAIN      45  45 100 CALM      29.71R
MARION         CLOUDY    46  41  81 W7        29.72R
HARTSVILLE     MOCLDY    45  23  42 NW3       29.74S
FLORENCE       CLOUDY    49  34  56 NW12G21   29.73R
DARLINGTON     CLOUDY    45  30  57 NW13      29.74R
CHARLESTON APT CLEAR     44  32  62 W15G24    29.79R
MOUNT PLEASANT FAIR     N/A N/A N/A W15G22    29.78R
WALTERBORO     CLEAR     43  30  61 W10G18    29.83R
BEAUFORT       CLEAR     43  31  62 W12       29.84R


...EASTERN GEORGIA...

CITY           SKY/WX    TMP DP  RH WIND       PRES   REMARKS
AUGUSTA BUSH F CLOUDY    40  28  62 NW15G23   29.86S WCI  32
AUGUSTA DANIEL CLOUDY    40  28  62 W8G17     29.86R WCI  34
THOMSON        CLOUDY    40  31  69 W9G16     29.91S WCI  34
WASHINGTON     FAIR      41  32  70 W13       29.88R
CLAXTON        FAIR      39  32  75 W10G17    29.90S WCI  32
SYLVANIA       PTCLDY    40  32  73 W9        29.88S WCI  34
STATESBORO     CLEAR     39  32  73 NW12      29.89R WCI  32
SAVANNAH       CLEAR     42  30  62 W13G23    29.88R


...SOUTHERN NORTH CAROLINA...

CITY           SKY/WX    TMP DP  RH WIND       PRES   REMARKS
CHARLOTTE      CLOUDY    37  22  54 NW13      29.77S WCI  29
MONROE         CLOUDY    40  24  53 NW9G20    29.75R WCI  34
WADESBORO      CLOUDY    43  30  61 NW8       29.74R
ROCKINGHAM       N/A     43  32  65 NW8       29.72R
RUTHERFORDTON  MOCLDY    35  22  59 N5        29.80S WCI  31
ASHEVILLE      PTCLDY    28  22  78 N12G22    29.79R WCI  18

$$



USA.gov is the U.S. government's official web portal to all federal, state and local government web resources and services.